Time,TemperatureF,DewpointF,PressureIn,WindDirection,WindDirectionDegrees,WindSpeedMPH,WindSpeedGustMPH,Humidity,HourlyPrecipIn,Conditions,Clouds,dailyrainin,SoftwareType,DateUTC
2013-02-26 00:00:00,36.0,30.7,29.76,East,96,15.0,18.0,81,0.00,,,0.02,Wunderground v.1.15,2013-02-26 06:00:00,
2013-02-26 00:05:00,35.8,30.8,29.76,ESE,117,15.0,18.0,82,0.00,,,0.00,Wunderground v.1.15,2013-02-26 06:05:00,
2013-02-26 00:11:00,35.6,30.9,29.75,ESE,105,16.0,16.0,83,0.00,,,0.00,Wunderground v.1.15,2013-02-26 06:11:00,
2013-02-26 00:17:00,35.5,30.8,29.75,ESE,117,16.0,19.0,83,0.00,,,0.00,Wunderground v.1.15,2013-02-26 06:17:00,
2013-02-26 00:22:00,35.4,30.8,29.74,ESE,114,15.0,16.0,83,0.00,,,0.00,Wunderground v.1.15,2013-02-26 06:22:00,
2013-02-26 00:28:00,35.1,31.0,29.73,ESE,105,17.0,21.0,85,0.00,,,0.00,Wunderground v.1.15,2013-02-26 06:28:00,
2013-02-26 00:33:00,34.5,31.3,29.72,ESE,112,20.0,28.0,88,0.00,,,0.00,Wunderground v.1.15,2013-02-26 06:33:00,
2013-02-26 00:43:00,33.6,31.3,29.71,ESE,119,18.0,21.0,91,0.00,,,0.00,Wunderground v.1.15,2013-02-26 06:43:00,
2013-02-26 00:49:00,33.4,31.3,29.70,ESE,109,17.0,21.0,92,0.00,,,0.00,Wunderground v.1.15,2013-02-26 06:49:00,
2013-02-26 00:55:00,33.4,31.3,29.70,ESE,119,16.0,21.0,92,0.00,,,0.00,Wunderground v.1.15,2013-02-26 06:55:00,
2013-02-26 01:01:00,33.3,31.2,29.70,ESE,108,17.0,21.0,92,0.00,,,0.00,Wunderground v.1.15,2013-02-26 07:01:00,
2013-02-26 01:06:00,33.3,31.2,29.69,SE,131,17.0,21.0,92,0.00,,,0.00,Wunderground v.1.15,2013-02-26 07:06:00,
2013-02-26 01:12:00,33.2,31.1,29.69,ESE,111,16.0,21.0,92,0.00,,,0.00,Wunderground v.1.15,2013-02-26 07:12:00,
2013-02-26 01:17:00,33.3,31.5,29.68,ESE,117,15.0,21.0,93,0.00,,,0.00,Wunderground v.1.15,2013-02-26 07:17:00,
2013-02-26 01:22:00,33.2,31.4,29.67,ESE,105,15.0,21.0,93,0.00,,,0.00,Wunderground v.1.15,2013-02-26 07:22:00,
2013-02-26 01:28:00,33.2,31.4,29.67,ESE,113,15.0,21.0,93,0.00,,,0.00,Wunderground v.1.15,2013-02-26 07:28:00,
2013-02-26 01:34:00,33.1,31.3,29.66,ESE,115,15.0,21.0,93,0.00,,,0.00,Wunderground v.1.15,2013-02-26 07:34:00,
2013-02-26 01:39:00,33.0,31.2,29.66,ESE,105,15.0,21.0,93,0.00,,,0.00,Wunderground v.1.15,2013-02-26 07:39:00,
2013-02-26 01:45:00,32.9,31.1,29.65,SE,125,16.0,21.0,93,0.00,,,0.00,Wunderground v.1.15,2013-02-26 07:45:00,
2013-02-26 01:50:00,32.8,31.0,29.64,ESE,115,15.0,15.0,93,0.00,,,0.00,Wunderground v.1.15,2013-02-26 07:50:00,
2013-02-26 01:56:00,32.7,31.2,29.64,ESE,111,13.0,21.0,94,0.00,,,0.00,Wunderground v.1.15,2013-02-26 07:56:00,
2013-02-26 02:08:00,32.7,31.2,29.63,ESE,108,15.0,21.0,94,0.00,,,0.00,Wunderground v.1.15,2013-02-26 08:08:00,
2013-02-26 02:13:00,32.7,31.2,29.62,ESE,115,16.0,21.0,94,0.00,,,0.00,Wunderground v.1.15,2013-02-26 08:13:00,
2013-02-26 02:19:00,32.7,31.2,29.61,ESE,109,15.0,22.0,94,0.00,,,0.00,Wunderground v.1.15,2013-02-26 08:19:00,
2013-02-26 02:24:00,32.6,31.1,29.62,ESE,109,15.0,21.0,94,0.00,,,0.00,Wunderground v.1.15,2013-02-26 08:24:00,
2013-02-26 02:30:00,32.6,31.3,29.62,ESE,123,16.0,21.0,95,0.00,,,0.00,Wunderground v.1.15,2013-02-26 08:30:00,
2013-02-26 02:35:00,32.6,31.3,29.61,East,95,15.0,21.0,95,0.00,,,0.00,Wunderground v.1.15,2013-02-26 08:35:00,
2013-02-26 02:41:00,32.5,31.2,29.61,ESE,121,14.0,21.0,95,0.00,,,0.00,Wunderground v.1.15,2013-02-26 08:41:00,
2013-02-26 02:46:00,32.5,31.2,29.60,ESE,115,13.0,21.0,95,0.00,,,0.00,Wunderground v.1.15,2013-02-26 08:46:00,
2013-02-26 02:51:00,32.5,31.2,29.59,ESE,105,13.0,21.0,95,0.00,,,0.00,Wunderground v.1.15,2013-02-26 08:51:00,
2013-02-26 02:57:00,32.5,31.2,29.58,ESE,109,13.0,21.0,95,0.00,,,0.00,Wunderground v.1.15,2013-02-26 08:57:00,
2013-02-26 03:02:00,32.4,31.1,29.57,ESE,106,14.0,21.0,95,0.00,,,0.00,Wunderground v.1.15,2013-02-26 09:02:00,
2013-02-26 03:08:00,32.4,31.1,29.57,ESE,109,14.0,21.0,95,0.00,,,0.00,Wunderground v.1.15,2013-02-26 09:08:00,
2013-02-26 03:13:00,32.4,31.1,29.56,ESE,106,15.0,21.0,95,0.00,,,0.00,Wunderground v.1.15,2013-02-26 09:13:00,
2013-02-26 03:19:00,32.4,31.1,29.56,ESE,110,16.0,22.0,95,0.00,,,0.00,Wunderground v.1.15,2013-02-26 09:19:00,
2013-02-26 03:24:00,32.4,31.1,29.56,ESE,120,16.0,21.0,95,0.00,,,0.00,Wunderground v.1.15,2013-02-26 09:24:00,
2013-02-26 03:30:00,32.4,31.1,29.55,East,98,16.0,16.0,95,0.00,,,0.00,Wunderground v.1.15,2013-02-26 09:30:00,
2013-02-26 03:35:00,32.4,31.1,29.55,East,96,16.0,21.0,95,0.00,,,0.00,Wunderground v.1.15,2013-02-26 09:35:00,
2013-02-26 03:41:00,32.3,31.0,29.55,ESE,110,16.0,21.0,95,0.00,,,0.00,Wunderground v.1.15,2013-02-26 09:41:00,
2013-02-26 03:46:00,32.3,31.0,29.55,ESE,111,16.0,21.0,95,0.00,,,0.00,Wunderground v.1.15,2013-02-26 09:46:00,
2013-02-26 03:52:00,32.3,31.0,29.55,ESE,116,15.0,21.0,95,0.00,,,0.00,Wunderground v.1.15,2013-02-26 09:52:00,
2013-02-26 03:57:00,32.3,31.0,29.54,ESE,113,14.0,21.0,95,0.00,,,0.00,Wunderground v.1.15,2013-02-26 09:57:00,
2013-02-26 04:03:00,32.3,31.0,29.53,East,99,15.0,21.0,95,0.00,,,0.00,Wunderground v.1.15,2013-02-26 10:03:00,
2013-02-26 04:09:00,32.3,31.0,29.53,East,101,16.0,21.0,95,0.00,,,0.00,Wunderground v.1.15,2013-02-26 10:09:00,
2013-02-26 04:14:00,32.3,31.0,29.53,ESE,106,16.0,21.0,95,0.00,,,0.00,Wunderground v.1.15,2013-02-26 10:14:00,
2013-02-26 04:28:00,32.2,31.2,29.52,ESE,106,15.0,21.0,96,0.00,,,0.00,Wunderground v.1.15,2013-02-26 10:28:00,
2013-02-26 04:34:00,32.3,31.3,29.52,ESE,115,16.0,22.0,96,0.00,,,0.00,Wunderground v.1.15,2013-02-26 10:34:00,
2013-02-26 04:39:00,32.3,31.3,29.52,ESE,105,15.0,22.0,96,0.00,,,0.00,Wunderground v.1.15,2013-02-26 10:39:00,
2013-02-26 04:45:00,32.3,31.3,29.52,ESE,105,15.0,21.0,96,0.00,,,0.00,Wunderground v.1.15,2013-02-26 10:45:00,
2013-02-26 04:50:00,32.2,31.2,29.52,ESE,105,15.0,15.0,96,0.00,,,0.00,Wunderground v.1.15,2013-02-26 10:50:00,
2013-02-26 04:56:00,32.2,31.2,29.52,ESE,105,14.0,21.0,96,0.00,,,0.00,Wunderground v.1.15,2013-02-26 10:56:00,
2013-02-26 05:01:00,32.2,31.2,29.52,ESE,105,13.0,21.0,96,0.00,,,0.00,Wunderground v.1.15,2013-02-26 11:01:00,
2013-02-26 05:07:00,32.2,31.2,29.52,ESE,105,15.0,21.0,96,0.00,,,0.00,Wunderground v.1.15,2013-02-26 11:07:00,
2013-02-26 05:12:00,32.2,31.2,29.52,ESE,105,14.0,21.0,96,0.00,,,0.00,Wunderground v.1.15,2013-02-26 11:12:00,
2013-02-26 05:18:00,32.1,31.1,29.50,ESE,105,14.0,21.0,96,0.00,,,0.00,Wunderground v.1.15,2013-02-26 11:18:00,
2013-02-26 05:23:00,32.1,31.1,29.50,ESE,105,15.0,21.0,96,0.00,,,0.00,Wunderground v.1.15,2013-02-26 11:23:00,
2013-02-26 05:29:00,32.1,31.1,29.50,ESE,105,15.0,21.0,96,0.00,,,0.00,Wunderground v.1.15,2013-02-26 11:29:00,
2013-02-26 05:34:00,32.1,31.1,29.50,ESE,105,15.0,21.0,96,0.00,,,0.00,Wunderground v.1.15,2013-02-26 11:34:00,
2013-02-26 05:40:00,32.1,31.1,29.50,ESE,105,16.0,21.0,96,0.00,,,0.00,Wunderground v.1.15,2013-02-26 11:40:00,
2013-02-26 05:45:00,32.1,31.1,29.50,ESE,105,16.0,21.0,96,0.00,,,0.00,Wunderground v.1.15,2013-02-26 11:45:00,
2013-02-26 05:51:00,32.1,31.1,29.50,ESE,105,15.0,21.0,96,0.00,,,0.00,Wunderground v.1.15,2013-02-26 11:51:00,
2013-02-26 05:56:00,32.1,31.1,29.50,ESE,105,15.0,21.0,96,0.00,,,0.00,Wunderground v.1.15,2013-02-26 11:56:00,
2013-02-26 06:02:00,32.1,31.1,29.49,ESE,105,15.0,20.0,96,0.00,,,0.00,Wunderground v.1.15,2013-02-26 12:02:00,
2013-02-26 06:08:00,32.1,31.1,29.49,ESE,105,16.0,21.0,96,0.00,,,0.00,Wunderground v.1.15,2013-02-26 12:08:00,
2013-02-26 06:13:00,32.1,31.1,29.48,ESE,105,15.0,21.0,96,0.00,,,0.00,Wunderground v.1.15,2013-02-26 12:13:00,
2013-02-26 06:19:00,32.1,31.1,29.47,ESE,105,15.0,21.0,96,0.00,,,0.00,Wunderground v.1.15,2013-02-26 12:19:00,
2013-02-26 06:24:00,32.0,31.0,29.47,ESE,105,15.0,21.0,96,0.00,,,0.00,Wunderground v.1.15,2013-02-26 12:24:00,
2013-02-26 06:30:00,32.0,31.0,29.47,ESE,105,14.0,14.0,96,0.00,,,0.00,Wunderground v.1.15,2013-02-26 12:30:00,
2013-02-26 06:35:00,32.0,31.0,29.47,ESE,105,14.0,21.0,96,0.00,,,0.00,Wunderground v.1.15,2013-02-26 12:35:00,
2013-02-26 06:40:00,32.1,31.1,29.47,ESE,105,14.0,14.0,96,0.00,,,0.00,Wunderground v.1.15,2013-02-26 12:40:00,
2013-02-26 06:46:00,32.0,31.0,29.47,ESE,105,14.0,21.0,96,0.00,,,0.00,Wunderground v.1.15,2013-02-26 12:46:00,
2013-02-26 06:52:00,32.1,31.1,29.48,ESE,105,13.0,21.0,96,0.00,,,0.00,Wunderground v.1.15,2013-02-26 12:52:00,
2013-02-26 06:57:00,32.1,31.1,29.48,ESE,105,14.0,21.0,96,0.00,,,0.00,Wunderground v.1.15,2013-02-26 12:57:00,
2013-02-26 07:02:00,32.1,31.1,29.48,ESE,105,14.0,21.0,96,0.00,,,0.00,Wunderground v.1.15,2013-02-26 13:02:00,
2013-02-26 07:08:00,32.1,31.1,29.48,ESE,105,14.0,21.0,96,0.00,,,0.00,Wunderground v.1.15,2013-02-26 13:08:00,
2013-02-26 07:14:00,32.1,31.1,29.49,ESE,105,14.0,21.0,96,0.00,,,0.00,Wunderground v.1.15,2013-02-26 13:14:00,
2013-02-26 07:19:00,32.1,31.1,29.49,ESE,105,13.0,21.0,96,0.00,,,0.00,Wunderground v.1.15,2013-02-26 13:19:00,
2013-02-26 07:25:00,32.1,31.1,29.49,ESE,105,13.0,21.0,96,0.00,,,0.00,Wunderground v.1.15,2013-02-26 13:25:00,
2013-02-26 07:30:00,32.1,31.1,29.49,ESE,105,14.0,14.0,96,0.00,,,0.00,Wunderground v.1.15,2013-02-26 13:30:00,
2013-02-26 07:36:00,32.1,31.1,29.49,ESE,105,14.0,21.0,96,0.00,,,0.00,Wunderground v.1.15,2013-02-26 13:36:00,
2013-02-26 07:41:00,32.1,31.1,29.49,ESE,105,14.0,21.0,96,0.00,,,0.00,Wunderground v.1.15,2013-02-26 13:41:00,
2013-02-26 07:47:00,32.2,31.2,29.49,ESE,106,14.0,21.0,96,0.00,,,0.00,Wunderground v.1.15,2013-02-26 13:47:00,
2013-02-26 07:52:00,32.2,31.2,29.49,ESE,105,13.0,21.0,96,0.00,,,0.00,Wunderground v.1.15,2013-02-26 13:52:00,
2013-02-26 07:58:00,32.2,31.2,29.49,ESE,105,11.0,21.0,96,0.00,,,0.00,Wunderground v.1.15,2013-02-26 13:58:00,
2013-02-26 08:03:00,32.2,31.2,29.49,East,101,12.0,21.0,96,0.00,,,0.00,Wunderground v.1.15,2013-02-26 14:03:00,
2013-02-26 08:09:00,32.2,31.2,29.49,East,98,12.0,21.0,96,0.00,,,0.00,Wunderground v.1.15,2013-02-26 14:09:00,
2013-02-26 08:14:00,32.2,31.2,29.48,ESE,105,11.0,21.0,96,0.00,,,0.00,Wunderground v.1.15,2013-02-26 14:14:00,
2013-02-26 08:19:00,32.2,31.2,29.48,ESE,107,12.0,21.0,96,0.00,,,0.00,Wunderground v.1.15,2013-02-26 14:19:00,
2013-02-26 08:29:00,32.2,31.2,29.48,ESE,106,14.0,21.0,96,0.00,,,0.00,Wunderground v.1.15,2013-02-26 14:29:00,
2013-02-26 08:35:00,32.2,31.2,29.48,ESE,105,16.0,22.0,96,0.00,,,0.00,Wunderground v.1.15,2013-02-26 14:35:00,
2013-02-26 08:40:00,32.2,31.2,29.48,ESE,107,18.0,21.0,96,0.00,,,0.00,Wunderground v.1.15,2013-02-26 14:40:00,
2013-02-26 08:46:00,32.3,31.3,29.48,East,96,20.0,24.0,96,0.00,,,0.00,Wunderground v.1.15,2013-02-26 14:46:00,
2013-02-26 08:51:00,32.3,31.3,29.48,East,96,21.0,21.0,96,0.00,,,0.00,Wunderground v.1.15,2013-02-26 14:51:00,
2013-02-26 09:02:00,32.3,31.3,29.48,ESE,112,21.0,21.0,96,0.00,,,0.00,Wunderground v.1.15,2013-02-26 15:02:00,
2013-02-26 09:07:00,32.3,31.3,29.48,ESE,106,21.0,24.0,96,0.00,,,0.00,Wunderground v.1.15,2013-02-26 15:07:00,
2013-02-26 09:13:00,32.3,31.3,29.48,East,100,20.0,21.0,96,0.00,,,0.00,Wunderground v.1.15,2013-02-26 15:13:00,
2013-02-26 09:18:00,32.3,31.3,29.48,ESE,105,19.0,21.0,96,0.00,,,0.00,Wunderground v.1.15,2013-02-26 15:18:00,
2013-02-26 09:24:00,32.3,31.3,29.48,ESE,105,19.0,22.0,96,0.00,,,0.00,Wunderground v.1.15,2013-02-26 15:24:00,
2013-02-26 09:30:00,32.3,31.3,29.48,East,96,19.0,22.0,96,0.00,,,0.00,Wunderground v.1.15,2013-02-26 15:30:00,
2013-02-26 09:35:00,32.3,31.3,29.48,ESE,104,20.0,26.0,96,0.00,,,0.00,Wunderground v.1.15,2013-02-26 15:35:00,
2013-02-26 09:41:00,32.3,31.3,29.48,East,99,19.0,21.0,96,0.00,,,0.00,Wunderground v.1.15,2013-02-26 15:41:00,
2013-02-26 09:46:00,32.3,31.3,29.48,East,100,17.0,21.0,96,0.00,,,0.00,Wunderground v.1.15,2013-02-26 15:46:00,
2013-02-26 09:52:00,32.3,31.3,29.48,East,98,17.0,21.0,96,0.00,,,0.00,Wunderground v.1.15,2013-02-26 15:52:00,
2013-02-26 09:57:00,32.3,31.3,29.48,East,100,17.0,21.0,96,0.00,,,0.00,Wunderground v.1.15,2013-02-26 15:57:00,
2013-02-26 10:03:00,32.4,31.4,29.48,ESE,103,17.0,21.0,96,0.00,,,0.00,Wunderground v.1.15,2013-02-26 16:03:00,
2013-02-26 10:08:00,32.4,31.4,29.48,ESE,103,17.0,21.0,96,0.00,,,0.00,Wunderground v.1.15,2013-02-26 16:08:00,
2013-02-26 10:14:00,32.4,31.4,29.48,ESE,104,17.0,21.0,96,0.00,,,0.00,Wunderground v.1.15,2013-02-26 16:14:00,
2013-02-26 10:21:00,32.4,31.4,29.48,ESE,107,17.0,21.0,96,0.00,,,0.00,Wunderground v.1.15,2013-02-26 16:21:00,
2013-02-26 10:35:00,32.4,31.4,29.48,East,94,15.0,21.0,96,0.00,,,0.00,Wunderground v.1.15,2013-02-26 16:35:00,
2013-02-26 10:41:00,32.5,31.5,29.48,ESE,107,16.0,21.0,96,0.00,,,0.00,Wunderground v.1.15,2013-02-26 16:41:00,
2013-02-26 10:47:00,32.5,31.5,29.48,ESE,107,16.0,21.0,96,0.00,,,0.00,Wunderground v.1.15,2013-02-26 16:47:00,
2013-02-26 10:52:00,32.5,31.5,29.48,East,97,15.0,21.0,96,0.00,,,0.00,Wunderground v.1.15,2013-02-26 16:52:00,
2013-02-26 10:58:00,32.4,31.4,29.48,East,98,15.0,21.0,96,0.00,,,0.01,Wunderground v.1.15,2013-02-26 16:58:00,
2013-02-26 11:03:00,32.5,31.5,29.48,East,98,16.0,21.0,96,0.00,,,0.01,Wunderground v.1.15,2013-02-26 17:03:00,
2013-02-26 11:09:00,32.5,31.5,29.48,ESE,112,15.0,21.0,96,0.00,,,0.01,Wunderground v.1.15,2013-02-26 17:09:00,
2013-02-26 11:15:00,32.5,31.5,29.48,East,101,15.0,21.0,96,0.00,,,0.01,Wunderground v.1.15,2013-02-26 17:15:00,
2013-02-26 11:21:00,32.5,31.5,29.48,ESE,105,15.0,21.0,96,0.00,,,0.01,Wunderground v.1.15,2013-02-26 17:21:00,
2013-02-26 11:27:00,32.5,31.5,29.48,East,98,14.0,21.0,96,0.00,,,0.01,Wunderground v.1.15,2013-02-26 17:27:00,
2013-02-26 11:32:00,32.5,31.7,29.48,East,91,14.0,21.0,97,0.00,,,0.01,Wunderground v.1.15,2013-02-26 17:32:00,
2013-02-26 11:38:00,32.5,31.5,29.48,East,96,13.0,21.0,96,0.00,,,0.01,Wunderground v.1.15,2013-02-26 17:38:00,
2013-02-26 11:43:00,32.5,31.7,29.48,East,99,13.0,21.0,97,0.00,,,0.01,Wunderground v.1.15,2013-02-26 17:43:00,
2013-02-26 11:49:00,32.5,31.5,29.48,East,92,14.0,21.0,96,0.00,,,0.01,Wunderground v.1.15,2013-02-26 17:49:00,
2013-02-26 11:54:00,32.5,31.5,29.48,East,97,14.0,21.0,96,0.00,,,0.01,Wunderground v.1.15,2013-02-26 17:54:00,
2013-02-26 12:08:00,32.5,31.7,29.49,East,98,14.0,21.0,97,0.00,,,0.01,Wunderground v.1.15,2013-02-26 18:08:00,
2013-02-26 12:14:00,32.5,31.7,29.49,ESE,105,14.0,21.0,97,0.00,,,0.01,Wunderground v.1.15,2013-02-26 18:14:00,
2013-02-26 12:19:00,32.5,31.7,29.48,East,94,16.0,21.0,97,0.00,,,0.01,Wunderground v.1.15,2013-02-26 18:19:00,
2013-02-26 12:25:00,32.5,31.7,29.48,East,90,16.0,21.0,97,0.00,,,0.01,Wunderground v.1.15,2013-02-26 18:25:00,
2013-02-26 12:32:00,32.5,31.7,29.48,East,92,16.0,21.0,97,0.00,,,0.01,Wunderground v.1.15,2013-02-26 18:32:00,
2013-02-26 12:38:00,32.5,31.7,29.48,East,79,15.0,21.0,97,0.00,,,0.01,Wunderground v.1.15,2013-02-26 18:38:00,
2013-02-26 12:43:00,32.6,31.8,29.47,East,101,14.0,21.0,97,0.00,,,0.01,Wunderground v.1.15,2013-02-26 18:43:00,
2013-02-26 12:49:00,32.6,31.8,29.47,East,94,14.0,21.0,97,0.00,,,0.01,Wunderground v.1.15,2013-02-26 18:49:00,
2013-02-26 12:54:00,32.6,31.8,29.47,East,92,15.0,21.0,97,0.00,,,0.01,Wunderground v.1.15,2013-02-26 18:54:00,
2013-02-26 13:00:00,32.6,31.8,29.47,East,81,16.0,21.0,97,0.00,,,0.01,Wunderground v.1.15,2013-02-26 19:00:00,
2013-02-26 13:05:00,32.6,31.8,29.47,East,91,15.0,21.0,97,0.00,,,0.01,Wunderground v.1.15,2013-02-26 19:05:00,
2013-02-26 13:11:00,32.6,31.8,29.48,East,95,16.0,21.0,97,0.00,,,0.01,Wunderground v.1.15,2013-02-26 19:11:00,
2013-02-26 13:16:00,32.6,31.8,29.48,East,92,15.0,21.0,97,0.00,,,0.01,Wunderground v.1.15,2013-02-26 19:16:00,
2013-02-26 13:22:00,32.6,31.8,29.48,East,98,15.0,21.0,97,0.00,,,0.01,Wunderground v.1.15,2013-02-26 19:22:00,
2013-02-26 13:27:00,32.5,31.7,29.48,East,90,15.0,21.0,97,0.00,,,0.01,Wunderground v.1.15,2013-02-26 19:27:00,
2013-02-26 13:33:00,32.5,31.7,29.49,East,81,14.0,21.0,97,0.00,,,0.01,Wunderground v.1.15,2013-02-26 19:33:00,
2013-02-26 13:39:00,32.5,31.7,29.48,ENE,59,14.0,21.0,97,0.00,,,0.01,Wunderground v.1.15,2013-02-26 19:39:00,
2013-02-26 13:44:00,32.5,31.7,29.49,East,82,13.0,21.0,97,0.00,,,0.01,Wunderground v.1.15,2013-02-26 19:44:00,
2013-02-26 13:49:00,32.5,31.7,29.49,East,80,14.0,21.0,97,0.00,,,0.01,Wunderground v.1.15,2013-02-26 19:49:00,
2013-02-26 13:55:00,32.6,31.8,29.49,East,98,14.0,21.0,97,0.00,,,0.01,Wunderground v.1.15,2013-02-26 19:55:00,
2013-02-26 14:01:00,32.6,31.8,29.49,East,82,14.0,21.0,97,0.00,,,0.01,Wunderground v.1.15,2013-02-26 20:01:00,
2013-02-26 14:06:00,32.6,31.8,29.49,East,98,12.0,21.0,97,0.00,,,0.01,Wunderground v.1.15,2013-02-26 20:06:00,
2013-02-26 14:12:00,32.6,31.8,29.50,East,84,12.0,21.0,97,0.00,,,0.01,Wunderground v.1.15,2013-02-26 20:12:00,
2013-02-26 14:17:00,32.5,31.7,29.50,ENE,63,12.0,21.0,97,0.00,,,0.01,Wunderground v.1.15,2013-02-26 20:17:00,
2013-02-26 14:23:00,32.5,31.7,29.50,ENE,77,11.0,21.0,97,0.00,,,0.01,Wunderground v.1.15,2013-02-26 20:23:00,
2013-02-26 14:34:00,32.6,31.8,29.50,ESE,109,10.0,21.0,97,0.00,,,0.01,Wunderground v.1.15,2013-02-26 20:34:00,
2013-02-26 14:40:00,32.6,31.8,29.50,ESE,102,11.0,11.0,97,0.00,,,0.01,Wunderground v.1.15,2013-02-26 20:40:00,
2013-02-26 14:50:00,32.6,31.8,29.51,East,96,12.0,21.0,97,0.00,,,0.01,Wunderground v.1.15,2013-02-26 20:50:00,
2013-02-26 14:56:00,32.6,31.8,29.52,East,87,12.0,21.0,97,0.00,,,0.01,Wunderground v.1.15,2013-02-26 20:56:00,
2013-02-26 15:01:00,32.6,31.8,29.52,East,89,12.0,21.0,97,0.00,,,0.01,Wunderground v.1.15,2013-02-26 21:01:00,
2013-02-26 15:14:00,32.6,31.8,29.53,ENE,70,10.0,21.0,97,0.00,,,0.01,Wunderground v.1.15,2013-02-26 21:14:00,
2013-02-26 15:19:00,32.6,31.8,29.53,East,97,10.0,21.0,97,0.00,,,0.01,Wunderground v.1.15,2013-02-26 21:19:00,
2013-02-26 15:25:00,32.5,31.7,29.53,East,79,10.0,21.0,97,0.00,,,0.01,Wunderground v.1.15,2013-02-26 21:25:00,
2013-02-26 15:31:00,32.6,31.8,29.53,ENE,77,10.0,21.0,97,0.00,,,0.01,Wunderground v.1.15,2013-02-26 21:31:00,
2013-02-26 15:36:00,32.5,31.7,29.53,ENE,76,11.0,21.0,97,0.00,,,0.01,Wunderground v.1.15,2013-02-26 21:36:00,
2013-02-26 15:42:00,32.5,31.7,29.53,East,80,12.0,21.0,97,0.00,,,0.01,Wunderground v.1.15,2013-02-26 21:42:00,
2013-02-26 15:47:00,32.5,31.7,29.53,East,84,11.0,21.0,97,0.00,,,0.01,Wunderground v.1.15,2013-02-26 21:47:00,
2013-02-26 15:53:00,32.5,31.7,29.54,East,80,11.0,21.0,97,0.00,,,0.01,Wunderground v.1.15,2013-02-26 21:53:00,
2013-02-26 15:58:00,32.5,31.7,29.54,ENE,77,9.0,21.0,97,0.00,,,0.01,Wunderground v.1.15,2013-02-26 21:58:00,
2013-02-26 16:04:00,32.5,31.7,29.54,ENE,70,9.0,21.0,97,0.00,,,0.01,Wunderground v.1.15,2013-02-26 22:04:00,
2013-02-26 16:09:00,32.5,31.7,29.54,East,84,10.0,21.0,97,0.00,,,0.01,Wunderground v.1.15,2013-02-26 22:09:00,
2013-02-26 16:15:00,32.5,31.7,29.54,ENE,63,11.0,21.0,97,0.00,,,0.01,Wunderground v.1.15,2013-02-26 22:15:00,
2013-02-26 16:20:00,32.5,31.7,29.54,ENE,64,10.0,21.0,97,0.00,,,0.01,Wunderground v.1.15,2013-02-26 22:20:00,
2013-02-26 16:26:00,32.4,31.6,29.55,East,88,10.0,21.0,97,0.00,,,0.01,Wunderground v.1.15,2013-02-26 22:26:00,
2013-02-26 16:31:00,32.4,31.6,29.55,East,86,10.0,21.0,97,0.00,,,0.01,Wunderground v.1.15,2013-02-26 22:31:00,
2013-02-26 16:37:00,32.4,31.6,29.55,East,84,10.0,21.0,97,0.00,,,0.01,Wunderground v.1.15,2013-02-26 22:37:00,
2013-02-26 16:42:00,32.4,31.6,29.55,ENE,70,10.0,21.0,97,0.00,,,0.01,Wunderground v.1.15,2013-02-26 22:42:00,
2013-02-26 16:48:00,32.4,31.6,29.55,East,81,10.0,21.0,97,0.00,,,0.01,Wunderground v.1.15,2013-02-26 22:48:00,
2013-02-26 16:53:00,32.4,31.6,29.56,East,93,10.0,21.0,97,0.00,,,0.01,Wunderground v.1.15,2013-02-26 22:53:00,
2013-02-26 16:59:00,32.3,31.5,29.56,East,80,10.0,21.0,97,0.00,,,0.01,Wunderground v.1.15,2013-02-26 22:59:00,
2013-02-26 17:04:00,32.3,31.5,29.56,East,79,10.0,21.0,97,0.00,,,0.01,Wunderground v.1.15,2013-02-26 23:04:00,
2013-02-26 17:10:00,32.3,31.5,29.57,ENE,70,10.0,21.0,97,0.00,,,0.01,Wunderground v.1.15,2013-02-26 23:10:00,
2013-02-26 17:15:00,32.3,31.5,29.57,ENE,78,10.0,21.0,97,0.00,,,0.01,Wunderground v.1.15,2013-02-26 23:15:00,
2013-02-26 17:21:00,32.3,31.5,29.58,ENE,65,8.0,21.0,97,0.00,,,0.01,Wunderground v.1.15,2013-02-26 23:21:00,
2013-02-26 17:26:00,32.2,31.4,29.59,ENE,76,8.0,21.0,97,0.00,,,0.01,Wunderground v.1.15,2013-02-26 23:26:00,
2013-02-26 17:32:00,32.2,31.4,29.59,East,80,9.0,21.0,97,0.00,,,0.01,Wunderground v.1.15,2013-02-26 23:32:00,
2013-02-26 17:37:00,32.2,31.4,29.59,ENE,76,10.0,21.0,97,0.00,,,0.01,Wunderground v.1.15,2013-02-26 23:37:00,
2013-02-26 17:43:00,32.2,31.4,29.60,East,81,9.0,21.0,97,0.00,,,0.01,Wunderground v.1.15,2013-02-26 23:43:00,
2013-02-26 17:49:00,32.1,31.3,29.60,ENE,61,9.0,21.0,97,0.00,,,0.01,Wunderground v.1.15,2013-02-26 23:49:00,
2013-02-26 17:55:00,32.1,31.3,29.60,ENE,58,9.0,21.0,97,0.00,,,0.01,Wunderground v.1.15,2013-02-26 23:55:00,
2013-02-26 18:01:00,32.1,31.3,29.61,East,81,8.0,21.0,97,0.00,,,0.01,Wunderground v.1.15,2013-02-27 00:01:00,
2013-02-26 18:06:00,32.1,31.3,29.61,ENE,76,8.0,21.0,97,0.00,,,0.01,Wunderground v.1.15,2013-02-27 00:06:00,
2013-02-26 18:11:00,32.1,31.3,29.62,ENE,76,7.0,21.0,97,0.00,,,0.01,Wunderground v.1.15,2013-02-27 00:11:00,
2013-02-26 18:17:00,32.1,31.3,29.62,ENE,74,8.0,21.0,97,0.00,,,0.01,Wunderground v.1.15,2013-02-27 00:17:00,
2013-02-26 18:23:00,32.1,31.3,29.62,ENE,67,9.0,21.0,97,0.00,,,0.01,Wunderground v.1.15,2013-02-27 00:23:00,
2013-02-26 18:28:00,32.1,31.3,29.63,East,79,8.0,21.0,97,0.00,,,0.01,Wunderground v.1.15,2013-02-27 00:28:00,
2013-02-26 18:34:00,32.0,31.2,29.63,ENE,70,8.0,21.0,97,0.00,,,0.01,Wunderground v.1.15,2013-02-27 00:34:00,
2013-02-26 18:39:00,32.1,31.3,29.64,East,84,8.0,21.0,97,0.00,,,0.01,Wunderground v.1.15,2013-02-27 00:39:00,
2013-02-26 18:45:00,32.1,31.3,29.64,ENE,65,7.0,21.0,97,0.00,,,0.01,Wunderground v.1.15,2013-02-27 00:45:00,
2013-02-26 18:50:00,32.0,31.2,29.64,NE,55,8.0,8.0,97,0.00,,,0.01,Wunderground v.1.15,2013-02-27 00:50:00,
2013-02-26 18:56:00,32.0,31.2,29.64,ENE,70,8.0,21.0,97,0.00,,,0.01,Wunderground v.1.15,2013-02-27 00:56:00,
2013-02-26 19:01:00,32.0,31.2,29.65,East,85,8.0,21.0,97,0.00,,,0.01,Wunderground v.1.15,2013-02-27 01:01:00,
2013-02-26 19:07:00,32.0,31.2,29.65,ENE,76,8.0,21.0,97,0.00,,,0.01,Wunderground v.1.15,2013-02-27 01:07:00,
2013-02-26 19:12:00,32.0,31.2,29.65,East,86,8.0,21.0,97,0.00,,,0.01,Wunderground v.1.15,2013-02-27 01:12:00,
2013-02-26 19:18:00,32.0,31.2,29.65,ENE,74,9.0,21.0,97,0.00,,,0.01,Wunderground v.1.15,2013-02-27 01:18:00,
2013-02-26 19:23:00,32.0,31.2,29.65,ENE,65,9.0,21.0,97,0.00,,,0.01,Wunderground v.1.15,2013-02-27 01:23:00,
2013-02-26 19:29:00,32.0,31.0,29.65,ENE,77,9.0,21.0,96,0.00,,,0.01,Wunderground v.1.15,2013-02-27 01:29:00,
2013-02-26 19:34:00,32.0,31.0,29.66,East,80,9.0,21.0,96,0.00,,,0.01,Wunderground v.1.15,2013-02-27 01:34:00,
2013-02-26 19:40:00,32.0,31.0,29.66,East,101,8.0,8.0,96,0.00,,,0.01,Wunderground v.1.15,2013-02-27 01:40:00,
2013-02-26 19:46:00,32.0,31.0,29.66,ENE,67,8.0,21.0,96,0.00,,,0.01,Wunderground v.1.15,2013-02-27 01:46:00,
2013-02-26 19:51:00,31.9,30.9,29.66,East,84,9.0,21.0,96,0.00,,,0.01,Wunderground v.1.15,2013-02-27 01:51:00,
2013-02-26 19:57:00,31.9,30.9,29.66,ENE,71,8.0,21.0,96,0.00,,,0.01,Wunderground v.1.15,2013-02-27 01:57:00,
2013-02-26 20:02:00,31.9,30.9,29.66,ENE,61,7.0,21.0,96,0.00,,,0.01,Wunderground v.1.15,2013-02-27 02:02:00,
2013-02-26 20:08:00,31.8,30.8,29.66,East,86,8.0,21.0,96,0.00,,,0.01,Wunderground v.1.15,2013-02-27 02:08:00,
2013-02-26 20:14:00,31.7,30.7,29.66,East,88,8.0,21.0,96,0.00,,,0.01,Wunderground v.1.15,2013-02-27 02:14:00,
2013-02-26 20:21:00,31.6,30.6,29.66,ENE,66,8.0,21.0,96,0.00,,,0.01,Wunderground v.1.15,2013-02-27 02:21:00,
2013-02-26 20:27:00,31.5,30.5,29.66,ENE,58,8.0,21.0,96,0.00,,,0.01,Wunderground v.1.15,2013-02-27 02:27:00,
2013-02-26 20:33:00,31.5,30.5,29.66,ENE,78,8.0,21.0,96,0.00,,,0.01,Wunderground v.1.15,2013-02-27 02:33:00,
2013-02-26 20:38:00,31.5,30.5,29.66,ENE,78,9.0,21.0,96,0.00,,,0.01,Wunderground v.1.15,2013-02-27 02:38:00,
2013-02-26 20:44:00,31.5,30.5,29.66,NE,45,8.0,21.0,96,0.00,,,0.01,Wunderground v.1.15,2013-02-27 02:44:00,
2013-02-26 20:54:00,31.5,30.5,29.66,ENE,57,9.0,21.0,96,0.00,,,0.01,Wunderground v.1.15,2013-02-27 02:54:00,
2013-02-26 21:00:00,31.4,30.4,29.66,ENE,66,9.0,9.0,96,0.00,,,0.01,Wunderground v.1.15,2013-02-27 03:00:00,
2013-02-26 21:06:00,31.4,30.4,29.66,ENE,65,9.0,21.0,96,0.00,,,0.01,Wunderground v.1.15,2013-02-27 03:06:00,
2013-02-26 21:11:00,31.3,30.3,29.66,ENE,67,8.0,21.0,96,0.00,,,0.01,Wunderground v.1.15,2013-02-27 03:11:00,
2013-02-26 21:17:00,31.3,30.3,29.67,NE,54,9.0,21.0,96,0.00,,,0.01,Wunderground v.1.15,2013-02-27 03:17:00,
2013-02-26 21:22:00,31.3,30.3,29.67,ENE,76,9.0,21.0,96,0.00,,,0.01,Wunderground v.1.15,2013-02-27 03:22:00,
2013-02-26 21:28:00,31.3,30.3,29.67,ENE,65,9.0,21.0,96,0.00,,,0.01,Wunderground v.1.15,2013-02-27 03:28:00,
2013-02-26 21:33:00,31.3,30.3,29.67,NNE,29,9.0,21.0,96,0.00,,,0.01,Wunderground v.1.15,2013-02-27 03:33:00,
2013-02-26 21:39:00,31.2,30.2,29.67,ENE,61,8.0,21.0,96,0.00,,,0.01,Wunderground v.1.15,2013-02-27 03:39:00,
2013-02-26 21:45:00,31.2,30.2,29.67,ENE,67,7.0,21.0,96,0.00,,,0.01,Wunderground v.1.15,2013-02-27 03:45:00,
2013-02-26 21:50:00,31.2,30.2,29.67,NE,56,7.0,21.0,96,0.00,,,0.01,Wunderground v.1.15,2013-02-27 03:50:00,
2013-02-26 21:56:00,31.2,30.2,29.68,NE,53,7.0,21.0,96,0.00,,,0.01,Wunderground v.1.15,2013-02-27 03:56:00,
2013-02-26 22:01:00,31.2,30.2,29.68,East,84,8.0,21.0,96,0.00,,,0.01,Wunderground v.1.15,2013-02-27 04:01:00,
2013-02-26 22:07:00,31.2,30.2,29.68,ENE,61,8.0,21.0,96,0.00,,,0.01,Wunderground v.1.15,2013-02-27 04:07:00,
2013-02-26 22:13:00,31.1,30.1,29.68,ENE,68,7.0,21.0,96,0.00,,,0.01,Wunderground v.1.15,2013-02-27 04:13:00,
2013-02-26 22:18:00,31.1,30.1,29.68,ENE,62,7.0,21.0,96,0.00,,,0.01,Wunderground v.1.15,2013-02-27 04:18:00,
2013-02-26 22:24:00,31.1,30.1,29.68,ENE,59,8.0,21.0,96,0.00,,,0.01,Wunderground v.1.15,2013-02-27 04:24:00,
2013-02-26 22:30:00,31.1,30.1,29.69,NE,55,8.0,21.0,96,0.00,,,0.01,Wunderground v.1.15,2013-02-27 04:30:00,
2013-02-26 22:35:00,31.1,30.1,29.69,NE,46,6.0,21.0,96,0.00,,,0.01,Wunderground v.1.15,2013-02-27 04:35:00,
2013-02-26 22:41:00,31.1,30.1,29.69,East,93,5.0,21.0,96,0.00,,,0.01,Wunderground v.1.15,2013-02-27 04:41:00,
2013-02-26 22:47:00,31.0,30.0,29.69,ENE,64,5.0,21.0,96,0.00,,,0.01,Wunderground v.1.15,2013-02-27 04:47:00,
2013-02-26 22:52:00,31.0,30.0,29.69,NE,51,4.0,21.0,96,0.00,,,0.01,Wunderground v.1.15,2013-02-27 04:52:00,
2013-02-26 22:58:00,31.1,30.1,29.69,ENE,74,4.0,21.0,96,0.00,,,0.01,Wunderground v.1.15,2013-02-27 04:58:00,
2013-02-26 23:00:00,31.1,30.1,29.69,ENE,71,4.0,21.0,96,0.00,,,0.01,Wunderground v.1.15,2013-02-27 05:00:00,
2013-02-26 23:01:00,31.1,30.1,29.69,ENE,64,4.0,21.0,96,0.00,,,0.01,Wunderground v.1.15,2013-02-27 05:01:00,
2013-02-26 23:04:00,31.0,30.0,29.69,East,81,4.0,21.0,96,0.00,,,0.01,Wunderground v.1.15,2013-02-27 05:04:00,
2013-02-26 23:08:00,31.1,30.1,29.69,NE,49,4.0,21.0,96,0.00,,,0.01,Wunderground v.1.15,2013-02-27 05:08:00,
2013-02-26 23:13:00,31.1,30.1,29.69,ENE,57,5.0,21.0,96,0.00,,,0.01,Wunderground v.1.15,2013-02-27 05:13:00,
2013-02-26 23:19:00,31.1,30.1,29.70,ENE,65,4.0,21.0,96,0.00,,,0.01,Wunderground v.1.15,2013-02-27 05:19:00,
2013-02-26 23:25:00,31.1,30.1,29.70,ENE,58,5.0,21.0,96,0.00,,,0.01,Wunderground v.1.15,2013-02-27 05:25:00,
2013-02-26 23:30:00,31.1,30.1,29.70,NE,53,5.0,21.0,96,0.00,,,0.01,Wunderground v.1.15,2013-02-27 05:30:00,
2013-02-26 23:36:00,31.2,30.2,29.70,ENE,71,5.0,21.0,96,0.00,,,0.01,Wunderground v.1.15,2013-02-27 05:36:00,
2013-02-26 23:41:00,31.2,30.2,29.70,ENE,59,5.0,21.0,96,0.00,,,0.01,Wunderground v.1.15,2013-02-27 05:41:00,
2013-02-26 23:47:00,31.2,30.2,29.70,East,80,4.0,21.0,96,0.00,,,0.01,Wunderground v.1.15,2013-02-27 05:47:00,
2013-02-26 23:57:00,31.3,30.3,29.70,ESE,106,3.0,21.0,96,0.00,,,0.01,Wunderground v.1.15,2013-02-27 05:57:00,